STARLINK-1455 (45672 NORAD) Tracking and Keplerian Element Data

This shows tracking and keplerian element data for the satellite.

Feedback or suggestion? Click here.




ElementValue
Catalog45672
NameSTARLINK-1455
Epoch Orbit555
Epoch Day185.50001157
Epoch Year2020
RAAN22.6198
Inclination52.9992
Eccentricity0.0001235
Argument of Perigee67.1015
Mean Anonmoly58.0793
Mean Motion15.61425632
Decay Rate-0.00087164
L11 45672U 20035R 20185.50001157 -.00087164 00000-0 -10071-2 0 9998
L22 45672 52.9992 22.6198 0001235 67.1015 58.0793 15.61425632 5553

Live tracking and technical data element details for STARLINK-1455 (NORAD 45672). STARLINK-1455 can be tracked NOW for your location showing map with azimuth and elevation plus other details from your city location.

Track the satellite on the map from your city or location and see movement details for azimuth, elevation, latitude, longitude, range, height, and movement on the map or in text.







IsCatalogInMostPopularTable: catalog: 45672, numindb: 4
Update: records affected: 1



GetName: 45672 STARLINK-1455

Hit Count: updated at: Sat, 04 Jul 2020 03:17:50 GMT